THOR ABLESTAR DEB, 649

Orbit data source: Space-Track

THOR ABLESTAR DEB, 649 is space debris in LEO originally from a launch on Thu, 29 Jun 1961 UTC launched from the Air Force Eastern Test Range (AFETR). Debris objects in space refer to the collection of defunct objects orbiting the Earth. Examples of debris include non-operational satellites, rocket bodies, and fragments generated from explosions, collisions, or faulty payload assembly.

Loading next visibility...
Identifier
649, 1961-015HA
Orbit
LEO
Country
Flag of USUS
Related business
Manufacturer
Unknown
Mission
Spacecraft
Bus & Motor
Unknown
Mass
Unknown
Launch date (UTC)
1961-06-29 (65 years ago)
Launch vehicle
Unknown
Launch site
Air Force Eastern Test Range (AFETR)
Object type
Payload
Rocket body
Debris
Shape & HBR
Unknown shape, 0.1 m
Radar Cross Section
Small (<0.1 m²)

Expand to show TLE details & history
Last TLE update: 7 hours ago

TLE from 7 hours ago
0 THOR ABLESTAR DEB
1   649U 61015HA  26110.46414522  .00000005  00000-0  18078-3 0  9992
2   649  66.2657 286.9063 0554058  70.8514 325.0109 12.65328201985337
Epoch: 2026-04-20T11:08Z
TLE epoch observation values (Epoch: 2026-04-20T11:08:22.147Z)
Latitude
29.08726°
Longitude
-74.65696°
Altitude
1,058.943 km
Speed
7.486 km/s
True Right ascension
20h 03m 57s
True Declination
28° 56' 50"
Sunlit
Object was in daylight at epoch
Visualization orbit readout
Latitude
Unknown
Longitude
Unknown
Altitude
Unknown
Speed
Unknown
Apparent Right ascension
Unknown
Apparent Declination
Unknown
Sunlit
N/A
Visualization observer readout
Local Sidereal Time
01:18:33
Azimuth
Unknown
Elevation
Unknown
Doppler factor
Unknown
Orbital elements
Apogee altitude
1,830.503 km
Perigee altitude
968.642 km
Semi-major axis
7,777.709 km
Eccentricity
0.05541
Inclination
66.2657°
RAAN
286.9063°
Arg. of periapsis
70.8514°
True anomaly
321.15474°
Mean anomaly
325.0109°
Eccentric anomaly
323.10508°
Mean motion
3.16421 °/min
Orbital period
113.77 mins
BSTAR
0.00018078
Loading maneuver chart data...
Computing Atmospheric mass density...
Loading historical data...
Loading historical data...
Loading historical data...
Loading historical data...
Loading historical data...
Loading historical data...
Loading historical data...

Documentation

Showing up to 5 results
|